FDX211 EYVI-EPKK

Flight info

Callsign FDX211
Flight time 1h 8m
Altitude 360000
Route EYVI UPASI DCT TUNGA DCT SUWGI DCT TITUV M985 EVINA M66 KUKAM EPKK
Aircraft B738/M-VGDW/C

Departure

Time 2026-05-04 14:45
Airport Vilnius International Airport (EYVI)

Arrival

Time 2026-05-04 15:53
Airport Kraków John Paul II International Airport (EPKK)
Time Latitude Longitude Altitude Speed Heading
2026-05-04 14:17 54.64220 25.28435 647 ft 0 kts 274°
2026-05-04 14:38 54.64221 25.28418 647 ft 5 kts 276°
2026-05-04 14:38 54.64268 25.28361 648 ft 10 kts
2026-05-04 14:38 54.64314 25.28439 650 ft 10 kts 81°
2026-05-04 14:39 54.64318 25.28559 650 ft 10 kts 86°
2026-05-04 14:39 54.64322 25.28675 651 ft 10 kts 87°
2026-05-04 14:39 54.64326 25.28789 652 ft 9 kts 86°
2026-05-04 14:40 54.64330 25.28920 652 ft 0 kts 87°
2026-05-04 14:43 54.64330 25.28922 652 ft 1 kts 87°
2026-05-04 14:43 54.64332 25.28991 653 ft 12 kts 87°
2026-05-04 14:44 54.64314 25.29166 656 ft 16 kts 142°
2026-05-04 14:44 54.64210 25.29134 651 ft 16 kts 201°
2026-05-04 14:44 54.63997 25.28985 644 ft 71 kts 202°
2026-05-04 14:44 54.63276 25.28459 669 ft 147 kts 208°
2026-05-04 14:45 54.62228 25.27764 1419 ft 162 kts 206°
2026-05-04 14:45 54.61236 25.27112 2706 ft 152 kts 207°
2026-05-04 14:45 54.60175 25.26375 3498 ft 180 kts 207°
2026-05-04 14:45 54.58890 25.25456 3873 ft 218 kts 206°
2026-05-04 14:46 54.57419 25.24424 4449 ft 235 kts 206°
2026-05-04 14:46 54.55901 25.23376 5335 ft 237 kts 205°
2026-05-04 14:46 54.54354 25.22317 6219 ft 241 kts 205°
2026-05-04 14:46 54.52788 25.21241 7254 ft 242 kts 206°
2026-05-04 14:47 54.51395 25.19690 8359 ft 238 kts 231°
2026-05-04 14:47 54.50596 25.17248 9432 ft 239 kts 253°
2026-05-04 14:47 54.50457 25.14291 10083 ft 258 kts 275°
2026-05-04 14:47 54.50826 25.11098 10460 ft 289 kts 282°
2026-05-04 14:48 54.51391 25.07632 11004 ft 308 kts 283°
2026-05-04 14:48 54.51980 25.04058 11969 ft 312 kts 283°
2026-05-04 14:48 54.52557 25.00439 13049 ft 313 kts 282°
2026-05-04 14:48 54.53020 24.96778 14013 ft 315 kts 272°
2026-05-04 14:49 54.52848 24.92997 14806 ft 320 kts 257°
2026-05-04 14:49 54.52163 24.89317 15625 ft 327 kts 251°
2026-05-04 14:49 54.51365 24.85660 16430 ft 333 kts 250°
2026-05-04 14:49 54.50527 24.81910 17252 ft 339 kts 250°
2026-05-04 14:50 54.49669 24.78045 18076 ft 344 kts 250°
2026-05-04 14:50 54.48825 24.74201 18793 ft 349 kts 251°
2026-05-04 14:50 54.47969 24.70269 19554 ft 352 kts 251°
2026-05-04 14:50 54.47112 24.66307 20308 ft 356 kts 251°
2026-05-04 14:51 54.46245 24.62308 21035 ft 359 kts 251°
2026-05-04 14:51 54.45364 24.58257 21734 ft 364 kts 251°
2026-05-04 14:51 54.44471 24.54156 22429 ft 368 kts 251°
2026-05-04 14:51 54.43566 24.50017 23126 ft 372 kts 251°
2026-05-04 14:52 54.42650 24.45838 23745 ft 375 kts 251°
2026-05-04 14:52 54.41727 24.41625 24320 ft 378 kts 250°
2026-05-04 14:52 54.40796 24.37380 24919 ft 380 kts 250°
2026-05-04 14:52 54.39861 24.33127 25496 ft 383 kts 250°
2026-05-04 14:53 54.38926 24.28892 26026 ft 386 kts 250°
2026-05-04 14:53 54.38309 24.25969 26387 ft 387 kts 252°
2026-05-04 14:53 54.37231 24.20101 27117 ft 390 kts 253°
2026-05-04 14:53 54.36460 24.15619 27656 ft 392 kts 254°
2026-05-04 14:54 54.35940 24.12577 28005 ft 394 kts 253°
2026-05-04 14:54 54.35173 24.08111 28497 ft 397 kts 253°
2026-05-04 14:54 54.34381 24.03558 28990 ft 399 kts 253°
2026-05-04 14:54 54.33581 23.99002 29567 ft 399 kts 253°
2026-05-04 14:55 54.32779 23.94476 30285 ft 394 kts 253°
2026-05-04 14:55 54.31983 23.90007 30866 ft 391 kts 252°
2026-05-04 14:55 54.31184 23.85540 31335 ft 392 kts 252°
2026-05-04 14:55 54.30382 23.81072 31780 ft 393 kts 252°
2026-05-04 14:56 54.29579 23.76607 32293 ft 392 kts 252°
2026-05-04 14:56 54.28776 23.72152 32832 ft 390 kts 252°
2026-05-04 14:56 54.27976 23.67722 33320 ft 389 kts 252°
2026-05-04 14:56 54.27175 23.63298 33789 ft 389 kts 252°
2026-05-04 14:57 54.26373 23.58877 34206 ft 389 kts 252°
2026-05-04 14:57 54.25572 23.54465 34602 ft 389 kts 252°
2026-05-04 14:57 54.24769 23.50048 34967 ft 389 kts 252°
2026-05-04 14:57 54.23958 23.45614 35330 ft 390 kts 252°
2026-05-04 14:58 54.23148 23.41198 35709 ft 389 kts 252°
2026-05-04 14:58 54.22189 23.36856 35854 ft 393 kts 244°
2026-05-04 14:58 54.19559 23.28687 35870 ft 390 kts 241°
2026-05-04 14:59 54.16929 23.20671 35879 ft 389 kts 242°
2026-05-04 15:00 54.12980 23.08500 35880 ft 389 kts 242°
2026-05-04 15:00 54.10380 23.00490 35878 ft 389 kts 242°
2026-05-04 15:01 54.07504 22.92672 35877 ft 391 kts 231°
2026-05-04 15:01 54.05624 22.89350 35889 ft 393 kts 225°
2026-05-04 15:01 54.01136 22.83972 35883 ft 397 kts 214°
2026-05-04 15:02 53.96363 22.79210 35877 ft 398 kts 213°
2026-05-04 15:02 53.91618 22.74486 35878 ft 398 kts 213°
2026-05-04 15:03 53.86824 22.69682 35881 ft 398 kts 213°
2026-05-04 15:03 53.82082 22.64920 35883 ft 399 kts 213°
2026-05-04 15:04 53.77303 22.60129 35875 ft 399 kts 213°
2026-05-04 15:04 53.72520 22.55345 35886 ft 400 kts 213°
2026-05-04 15:05 53.67727 22.50564 35894 ft 400 kts 213°
2026-05-04 15:05 53.62922 22.45784 35882 ft 400 kts 213°
2026-05-04 15:06 53.58120 22.41020 35896 ft 401 kts 213°
2026-05-04 15:07 53.50940 22.33919 35886 ft 401 kts 213°
2026-05-04 15:07 53.46129 22.29177 35895 ft 401 kts 213°
2026-05-04 15:08 53.41310 22.24438 35893 ft 401 kts 213°
2026-05-04 15:08 53.36488 22.19709 35899 ft 401 kts 213°
2026-05-04 15:09 53.31664 22.14990 35900 ft 401 kts 213°
2026-05-04 15:09 53.26850 22.10290 35899 ft 401 kts 213°
2026-05-04 15:10 53.19605 22.03244 35901 ft 402 kts 213°
2026-05-04 15:11 53.12380 21.96267 35910 ft 402 kts 213°
2026-05-04 15:11 53.07537 21.91604 35905 ft 402 kts 213°
2026-05-04 15:12 53.02684 21.86938 35908 ft 403 kts 213°
2026-05-04 15:12 52.97836 21.82287 35910 ft 403 kts 213°
2026-05-04 15:13 52.92970 21.77630 35911 ft 403 kts 212°
2026-05-04 15:13 52.88108 21.72988 35908 ft 404 kts 212°
2026-05-04 15:14 52.83258 21.68370 35912 ft 404 kts 212°
2026-05-04 15:14 52.78372 21.63730 35915 ft 404 kts 212°
2026-05-04 15:15 52.73484 21.59099 35915 ft 405 kts 212°
2026-05-04 15:15 52.68590 21.54475 35916 ft 405 kts 212°
2026-05-04 15:16 52.61241 21.47549 35922 ft 405 kts 212°
2026-05-04 15:17 52.53919 21.40676 35925 ft 406 kts 212°
2026-05-04 15:17 52.46550 21.33805 35921 ft 406 kts 212°
2026-05-04 15:18 52.41643 21.29240 35928 ft 406 kts 212°
2026-05-04 15:19 52.34269 21.22394 35935 ft 406 kts 212°
2026-05-04 15:19 52.26894 21.15570 35937 ft 406 kts 212°
2026-05-04 15:20 52.21969 21.11027 35940 ft 406 kts 212°
2026-05-04 15:20 52.17065 21.06516 35939 ft 407 kts 212°
2026-05-04 15:21 52.12133 21.01989 35938 ft 407 kts 212°
2026-05-04 15:22 52.04973 20.95439 35937 ft 407 kts 212°
2026-05-04 15:22 51.97479 20.88608 35939 ft 407 kts 211°
2026-05-04 15:23 51.92535 20.84114 35943 ft 407 kts 211°
2026-05-04 15:23 51.90057 20.81864 35608 ft 411 kts 211°
2026-05-04 15:23 51.87566 20.79605 35110 ft 409 kts 211°
2026-05-04 15:24 51.82640 20.75150 33974 ft 408 kts 211°
2026-05-04 15:24 51.77691 20.70696 32894 ft 402 kts 211°
2026-05-04 15:25 51.75257 20.68514 32447 ft 398 kts 211°
2026-05-04 15:25 51.72849 20.66356 31996 ft 394 kts 211°
2026-05-04 15:25 51.70460 20.64216 31578 ft 390 kts 211°
2026-05-04 15:26 51.65755 20.60003 30722 ft 384 kts 211°
2026-05-04 15:26 51.63470 20.57959 30310 ft 381 kts 211°
2026-05-04 15:26 51.58869 20.53850 29418 ft 375 kts 211°
2026-05-04 15:27 51.56594 20.51822 28990 ft 372 kts 211°
2026-05-04 15:27 51.52130 20.47848 28127 ft 367 kts 211°
2026-05-04 15:28 51.47689 20.43902 27273 ft 362 kts 211°
2026-05-04 15:28 51.45490 20.41949 26845 ft 361 kts 211°
2026-05-04 15:28 51.41109 20.38073 25993 ft 358 kts 211°
2026-05-04 15:29 51.38922 20.36192 25571 ft 357 kts 207°
2026-05-04 15:30 51.29484 20.31140 23919 ft 356 kts 200°
2026-05-04 15:30 51.22424 20.27520 22540 ft 353 kts 200°
2026-05-04 15:31 51.17806 20.25136 21708 ft 348 kts 200°
2026-05-04 15:31 51.15481 20.23936 21291 ft 345 kts 200°
2026-05-04 15:32 51.08703 20.20440 20057 ft 339 kts 200°
2026-05-04 15:32 51.04235 20.18140 19246 ft 336 kts 200°
2026-05-04 15:33 50.99791 20.15855 18446 ft 334 kts 200°
2026-05-04 15:34 50.93192 20.12473 17129 ft 329 kts 200°
2026-05-04 15:34 50.91024 20.11367 16721 ft 327 kts 200°
2026-05-04 15:34 50.86715 20.09169 15903 ft 323 kts 200°
2026-05-04 15:35 50.82464 20.07009 15110 ft 319 kts 200°
2026-05-04 15:35 50.80336 20.06044 14705 ft 319 kts 192°
2026-05-04 15:35 50.78145 20.05792 14376 ft 319 kts 185°
2026-05-04 15:36 50.73718 20.05654 13574 ft 317 kts 185°
2026-05-04 15:36 50.71518 20.05585 13145 ft 316 kts 185°
2026-05-04 15:36 50.69321 20.05504 12731 ft 314 kts 185°
2026-05-04 15:37 50.67139 20.05414 12327 ft 313 kts 185°
2026-05-04 15:37 50.64972 20.05319 12015 ft 308 kts 185°
2026-05-04 15:37 50.62859 20.05225 11554 ft 299 kts 185°
2026-05-04 15:37 50.60810 20.05131 11170 ft 290 kts 185°
2026-05-04 15:38 50.58817 20.05038 10806 ft 284 kts 185°
2026-05-04 15:38 50.56856 20.04944 10451 ft 281 kts 185°
2026-05-04 15:38 50.54898 20.04846 10221 ft 279 kts 185°
2026-05-04 15:38 50.52983 20.04754 10077 ft 273 kts 185°
2026-05-04 15:39 50.51101 20.04666 9878 ft 270 kts 185°
2026-05-04 15:39 50.49855 20.04607 9653 ft 271 kts 185°
2026-05-04 15:39 50.45504 20.05020 8935 ft 271 kts 161°
2026-05-04 15:40 50.43888 20.06499 8771 ft 271 kts 148°
2026-05-04 15:40 50.42876 20.07724 8650 ft 273 kts 145°
2026-05-04 15:40 50.40926 20.10250 8414 ft 276 kts 144°
2026-05-04 15:40 50.39926 20.11555 8312 ft 277 kts 144°
2026-05-04 15:41 50.38444 20.13476 8120 ft 277 kts 144°
2026-05-04 15:41 50.36979 20.15361 7949 ft 276 kts 144°
2026-05-04 15:41 50.35493 20.17258 7770 ft 274 kts 144°
2026-05-04 15:41 50.34022 20.19124 7593 ft 271 kts 144°
2026-05-04 15:42 50.32560 20.20975 7419 ft 268 kts 144°
2026-05-04 15:42 50.31108 20.22804 7250 ft 268 kts 144°
2026-05-04 15:42 50.29660 20.24627 7098 ft 267 kts 144°
2026-05-04 15:42 50.28213 20.26447 6930 ft 266 kts 144°
2026-05-04 15:43 50.26782 20.28246 6758 ft 259 kts 144°
2026-05-04 15:43 50.25409 20.29973 6598 ft 248 kts 144°
2026-05-04 15:43 50.24042 20.31541 6429 ft 241 kts 157°
2026-05-04 15:43 50.22453 20.32215 6304 ft 235 kts 171°
2026-05-04 15:44 50.20836 20.32723 6148 ft 238 kts 170°
2026-05-04 15:44 50.19208 20.33252 6002 ft 240 kts 170°
2026-05-04 15:44 50.17583 20.33565 5820 ft 236 kts 188°
2026-05-04 15:44 50.16092 20.32685 5682 ft 230 kts 218°
2026-05-04 15:45 50.15081 20.30808 5569 ft 227 kts 243°
2026-05-04 15:45 50.14567 20.28482 5419 ft 227 kts 255°
2026-05-04 15:45 50.14242 20.26113 5291 ft 219 kts 257°
2026-05-04 15:45 50.13948 20.23841 5146 ft 208 kts 257°
2026-05-04 15:46 50.13670 20.21694 4982 ft 196 kts 257°
2026-05-04 15:46 50.13406 20.19658 4812 ft 187 kts 257°
2026-05-04 15:46 50.13149 20.17712 4643 ft 179 kts 256°
2026-05-04 15:46 50.12901 20.15862 4512 ft 170 kts 257°
2026-05-04 15:47 50.12660 20.14086 4369 ft 164 kts 257°
2026-05-04 15:47 50.12433 20.12409 4250 ft 153 kts 256°
2026-05-04 15:47 50.12216 20.10823 4113 ft 148 kts 256°
2026-05-04 15:47 50.12007 20.09296 3981 ft 144 kts 257°
2026-05-04 15:48 50.11799 20.07761 3877 ft 147 kts 256°
2026-05-04 15:48 50.11582 20.06176 3735 ft 147 kts 256°
2026-05-04 15:48 50.11166 20.03134 3495 ft 143 kts 255°
2026-05-04 15:49 50.10958 20.01616 3375 ft 143 kts 255°
2026-05-04 15:49 50.10747 20.00092 3240 ft 143 kts 256°
2026-05-04 15:49 50.10566 19.98625 3154 ft 134 kts 256°
2026-05-04 15:49 50.10383 19.97185 3007 ft 136 kts 256°
2026-05-04 15:50 50.10188 19.95754 2835 ft 135 kts 255°
2026-05-04 15:50 50.09989 19.94352 2651 ft 129 kts 254°
2026-05-04 15:50 50.09798 19.92981 2501 ft 130 kts 255°
2026-05-04 15:50 50.09598 19.91565 2334 ft 136 kts 256°
2026-05-04 15:51 50.09398 19.90126 2138 ft 134 kts 255°
2026-05-04 15:51 50.09200 19.88720 1974 ft 132 kts 253°
2026-05-04 15:51 50.09003 19.87311 1787 ft 133 kts 254°
2026-05-04 15:51 50.08810 19.85917 1628 ft 132 kts 254°
2026-05-04 15:52 50.08605 19.84473 1430 ft 139 kts 257°
2026-05-04 15:52 50.08406 19.83025 1247 ft 132 kts 255°
2026-05-04 15:52 50.08206 19.81613 1094 ft 138 kts 257°
2026-05-04 15:52 50.07995 19.80146 852 ft 135 kts 258°
2026-05-04 15:53 50.07810 19.78836 791 ft 101 kts 258°
2026-05-04 15:53 50.07714 19.78094 787 ft 39 kts 258°
2026-05-04 15:53 50.07665 19.77725 787 ft 33 kts 258°
2026-05-04 15:53 50.07622 19.77390 789 ft 29 kts 258°
2026-05-04 15:54 50.07580 19.77094 794 ft 27 kts 258°
2026-05-04 15:54 50.07531 19.76871 795 ft 17 kts 217°
2026-05-04 15:54 50.07405 19.76876 789 ft 20 kts 167°
2026-05-04 15:54 50.07306 19.76956 788 ft 13 kts 98°
2026-05-04 15:55 50.07323 19.77096 788 ft 13 kts 78°
2026-05-04 15:55 50.07344 19.77242 788 ft 16 kts 77°
2026-05-04 15:55 50.07373 19.77440 788 ft 21 kts 77°
2026-05-04 15:55 50.07405 19.77667 788 ft 21 kts 77°
2026-05-04 15:56 50.07436 19.77887 788 ft 20 kts 77°
2026-05-04 15:56 50.07466 19.78098 788 ft 20 kts 78°
2026-05-04 15:56 50.07494 19.78302 788 ft 19 kts 77°
2026-05-04 15:56 50.07521 19.78496 788 ft 18 kts 77°
2026-05-04 15:57 50.07547 19.78681 788 ft 17 kts 78°
2026-05-04 15:57 50.07572 19.78862 788 ft 17 kts 78°
2026-05-04 15:57 50.07596 19.79036 788 ft 16 kts 77°
2026-05-04 15:57 50.07619 19.79198 788 ft 15 kts 77°
2026-05-04 15:58 50.07641 19.79354 788 ft 14 kts 77°
2026-05-04 15:58 50.07662 19.79504 788 ft 13 kts 78°
2026-05-04 15:58 50.07673 19.79586 788 ft 0 kts 78°
2026-05-04 16:04 50.07678 19.79622 788 ft 7 kts 78°
2026-05-04 16:04 50.07577 19.79727 788 ft 15 kts 169°
2026-05-04 16:04 50.07471 19.79761 788 ft 16 kts 168°
2026-05-04 16:05 50.07379 19.79823 788 ft 15 kts 113°
2026-05-04 16:05 50.07394 19.79974 788 ft 14 kts 78°
2026-05-04 16:05 50.07433 19.80253 788 ft 11 kts 77°
2026-05-04 16:06 50.07412 19.80329 788 ft 7 kts 166°
2026-05-04 16:06 50.07356 19.80349 788 ft 0 kts 167°